Regional Weather Roundup
Issued by NWS

Home | Current Version | Previous Version | Graphics & Text | Print | Product List | Glossary Off
Versions: 1 2 3 4 5 6 7 8 9 10 11 12 13 14 15 16 17 18 19 20 21 22 23 24 25 26 27 28 29 30 31 32 33 34 35 36 37 38 39 40 41 42 43 44 45 46 47 48 49 50

000
ASUS43 KFSD 050002
RWRSD

WEATHER ROUNDUP FOR SOUTH DAKOTA
NATIONAL WEATHER SERVICE SIOUX FALLS SD
700 PM CDT TUE AUG 04 2015

NOTE: "FAIR" INDICATES FEW OR NO CLOUDS BELOW 12,000 FEET WITH NO
SIGNIFICANT WEATHER AND/OR OBSTRUCTIONS TO VISIBILITY.


SDZ001>005-009-010-012>017-050100-
NORTHWEST AND NORTH CENTRAL SOUTH DAKOTA

CITY           SKY/WX    TMP DP  RH WIND       PRES   REMARKS
FAITH            N/A     83  53  35 SE17G23   29.92F
MOBRIDGE       MOSUNNY   83  59  44 SE13      29.91F
$$

SDZ012>016-024>037-041>051-057-063-072>074-050100-
SOUTHWEST AND SOUTH CENTRAL SOUTH DAKOTA

CITY           SKY/WX    TMP DP  RH WIND       PRES   REMARKS
RAPID CTY ARPT MOSUNNY   81  59  47 S12       29.93F
PIERRE         PTSUNNY   82  57  42 E16G24    29.91S
CUSTER         MOSUNNY   73  54  51 S8        30.09R
ELLSWORTH AFB  MOSUNNY   82  58  43 S9        29.92F
PHILIP         PTSUNNY   80  67  64 SE9       29.91F
PINE RIDGE     MOSUNNY   79  60  52 SE6       29.96S
WINNER         MOCLDY    80  65  59 E13       29.95R
$$

SDZ004>011-016>023-039-040-050100-
NORTHEAST SOUTH DAKOTA

CITY           SKY/WX    TMP DP  RH WIND       PRES   REMARKS
ABERDEEN       MOSUNNY   81  58  45 E8        29.96F
WATERTOWN      CLOUDY    78  56  46 S6        29.99F
BROOKINGS      PTSUNNY   75  61  60 SE7       30.01S
$$

SDZ017-020-022-023-036>040-048>070-050100-
SOUTHEAST SOUTH DAKOTA

CITY           SKY/WX    TMP DP  RH WIND       PRES   REMARKS
SIOUX FALLS    CLOUDY    76  62  62 E10       29.99R
HURON          MOSUNNY   79  62  56 SE9       29.95S
CHAMBERLAIN    MOSUNNY   78  63  59 E9        29.95S
MITCHELL       MOSUNNY   79  64  60 E12       29.96R
YANKTON        MOSUNNY   77  64  65 E9        29.95S
$$

ABBREVIATIONS USED IN REMARKS
   TC - TEMPERATURE IN CELSIUS
  WCI - WIND CHILL INDEX
   HX - HEAT INDEX
  VSB - VISIBILITY



USA.gov is the U.S. government's official web portal to all federal, state and local government web resources and services.